Wind_Speed
20 21 22 23 24 24 24 23 24 23 23 23 24 24 24 24 23 23 23 23 24 25
23 24 25 25 25 26 26 26 26 26 26 26 25 25 25 25 24 24 24 24 24 25
24 25 25 26 26 27 27 27 28 28 28 28 27 27 26 26 25 25 25 25 26 26
24 25 26 27 28 28 29 29 30 30 30 30 29 28 28 28 27 27 26 26 26 27
26 27 28 28 28 29 30 30 31 31 30 30 29 29 28 28 27 27 27 27 27 29
29 29 29 29 29 29 29 30 30 29 30 30 30 29 29 28 28 27 27 27 28 29
27 28 28 29 29 29 29 29 29 29 29 29 29 29 29 28 28 27 28 29 29 30
27 27 28 29 29 29 29 29 28 29 30 29 29 29 28 26 27 28 30 30 31 32
27 27 28 28 28 29 29 29 29 29 30 31 30 29 27 24 27 28 29 32 33 33
28 28 27 27 27 28 28 28 30 31 31 32 31 29 27 24 25 29 33 36 37 37
29 29 28 28 28 28 28 29 31 32 32 33 32 28 25 23 27 31 34 37 36 35
30 31 30 31 30 29 29 30 32 33 33 33 32 29 26 24 27 31 34 32 32 33
33 34 32 31 31 31 30 32 33 35 34 33 33 30 28 26 26 28 31 32 33 29
33 33 33 34 34 33 32 33 35 37 35 33 32 31 27 24 24 28 31 32 35 36
Wind_Direction
289 289 289 288 287 287 287 287 288 288 288 288 287 286 286 287 288 290 292 295 299 301
292 292 290 289 289 288 287 288 287 288 288 287 285 284 283 282 283 285 286 289 291 294
294 294 293 291 290 288 287 286 286 286 286 286 285 284 283 282 282 282 284 287 289 292
295 294 293 291 289 288 288 287 286 286 285 285 284 283 283 283 284 283 283 284 287 288
296 295 293 292 290 289 288 287 286 285 285 284 284 283 282 282 283 283 285 286 286 287
293 294 292 290 289 289 288 287 287 287 286 285 284 284 283 284 285 284 285 286 287 289
295 293 293 292 292 291 289 289 288 286 284 284 285 284 286 288 287 285 284 285 287 289
293 291 291 290 290 289 287 287 287 286 285 286 285 286 289 289 289 290 290 291 292 292
291 292 291 291 289 287 287 288 287 286 287 287 286 288 287 283 284 287 289 288 288 287
289 290 291 292 291 289 290 290 288 288 287 287 287 289 288 284 283 282 279 281 285 288
285 285 288 289 289 291 290 290 290 289 289 290 290 292 288 284 279 278 279 280 285 289
281 283 284 281 284 288 288 287 289 290 291 291 291 293 290 286 280 276 279 286 288 291
280 281 281 280 281 283 285 284 287 291 290 290 290 290 290 284 283 285 288 291 293 289
278 278 280 279 279 282 282 281 284 287 287 286 287 290 290 282 277 279 285 290 294 293
Height
1549 1548 1548 1547 1547 1547 1546 1545 1544 1542 1541 1539 1537 1535 1534 1532 1531 1530 1528 1526 1523 1521
1544 1544 1543 1542 1542 1541 1540 1539 1538 1536 1534 1533 1532 1530 1528 1527 1525 1524 1522 1520 1518 1515
1538 1538 1537 1536 1535 1534 1533 1532 1530 1529 1527 1526 1524 1523 1521 1520 1519 1517 1516 1513 1511 1509
1533 1532 1531 1530 1529 1527 1525 1524 1522 1521 1520 1518 1517 1515 1514 1512 1511 1509 1507 1506 1504 1502
1527 1525 1524 1523 1521 1519 1518 1516 1515 1513 1511 1510 1509 1507 1506 1504 1504 1501 1499 1498 1496 1494
1521 1519 1517 1515 1513 1511 1509 1508 1506 1504 1503 1502 1501 1500 1498 1497 1495 1494 1492 1490 1488 1486
1513 1511 1509 1507 1505 1504 1502 1500 1499 1497 1495 1494 1493 1492 1491 1489 1488 1486 1484 1482 1480 1477
1506 1504 1502 1500 1498 1496 1494 1493 1491 1489 1488 1487 1485 1484 1484 1482 1480 1477 1474 1472 1471 1469
1499 1496 1494 1492 1490 1488 1487 1485 1483 1481 1479 1478 1477 1477 1476 1476 1472 1470 1468 1465 1464 1462
1491 1489 1487 1484 1482 1480 1478 1477 1475 1473 1471 1469 1468 1468 1467 1467 1466 1463 1461 1458 1455 1452
1483 1481 1479 1476 1474 1473 1471 1469 1467 1464 1462 1460 1459 1460 1459 1460 1458 1454 1451 1449 1446 1443
1474 1472 1470 1467 1466 1465 1463 1461 1459 1456 1453 1452 1450 1451 1450 1451 1449 1445 1441 1440 1437 1435
1464 1462 1460 1459 1457 1456 1454 1451 1450 1448 1446 1444 1441 1442 1442 1441 1439 1436 1433 1431 1428 1426
1453 1451 1450 1449 1448 1446 1444 1442 1440 1438 1437 1435 1434 1432 1432 1432 1432 1429 1426 1422 1418 1416